Regional Weather Roundup
Issued by NWS

Home | Current Version | Previous Version | Text Only | Print | Product List | Glossary Off
Versions: 1 2 3 4 5 6 7 8 9 10 11 12 13 14 15 16 17 18 19 20 21 22 23 24 25 26 27 28 29 30 31 32 33 34 35 36 37 38 39 40 41 42 43 44 45 46 47 48 49 50

000
ASUS44 KMEG 162000
RWRTN
TENNESSEE HOURLY STATE WEATHER ROUNDUP
NATIONAL WEATHER SERVICE MEMPHIS TN
300 PM CDT WED APR 16 2014

TNZ002-004-019-021-049-052-054-088>092-162100-
WEST TENNESSEE

CITY           SKY/WX    TMP DP  RH WIND       PRES   REMARKS
MEMPHIS INTL   CLOUDY    61  23  23 SE6       30.17F
NWS MEMPHIS      N/A     62 N/A N/A MISG        N/A
JACKSON        SUNNY     60  22  23 NE8       30.19F
DYERSBURG      SUNNY     55  28  35 SE7       30.21F
UNION CITY     SUNNY     54  27  35 SE5       30.19F
LEXINGTON      SUNNY     61  19  20 VRB6      30.18F
$$

TNZ008-025-027-028-033-062-065-066-162100-
NORTH MIDDLE TENNESSEE

CITY           SKY/WX    TMP DP  RH WIND       PRES   REMARKS
NASHVILLE      PTSUNNY   58  25  28 E8        30.22F
CLARKSVILLE    SUNNY     55  29  36 E9        30.22F
CROSSVILLE     SUNNY     56  19  23 SE8       30.22F
$$

TNZ061-075-076-078-094-096-097-162100-
SOUTH MIDDLE TENNESSEE

CITY           SKY/WX    TMP DP  RH WIND       PRES   REMARKS
TULLAHOMA      SUNNY     59  21  23 VRB3      30.20F
WINCHESTER     SUNNY     61  25  25 S8        30.19F
MCMINNVILLE    SUNNY     61  23  23 CALM      30.20F
COLUMBIA       SUNNY     59  36  41 VRB6      30.18F
$$

TNZ017-018-042-046-047-162100-
NORTHEAST TENNESSEE

CITY           SKY/WX    TMP DP  RH WIND       PRES   REMARKS
TRI CITIES     MOSUNNY   57  20  23 CALM      30.25F
ELIZABETHTON   CLEAR     57  30  35 CALM      30.23F
$$

TNZ012-013-036-069-073-074-162100-
CENTRAL EAST TENNESSEE

CITY           SKY/WX    TMP DP  RH WIND       PRES   REMARKS
KNOXVILLE      MOSUNNY   56  26  31 NE5       30.24F
OAK RIDGE      SUNNY     58  21  24 VRB5      30.26F
$$

TNZ083-085-099-162100-
SOUTHEAST TENNESSEE

CITY           SKY/WX    TMP DP  RH WIND       PRES   REMARKS
CHATTANOOGA    MOSUNNY   60  24  25 S8        30.22F
$$

SKY/WX REPORTED AS FAIR MEANS FEW OR NO CLOUDS BELOW
12 THOUSAND FEET.




USA.gov is the U.S. government's official web portal to all federal, state and local government web resources and services.